Wind_Speed
13 13 12 11 10 10 9 9 9 9 9 9 8 8 7 7 7 6 6 6 6 5 4 3 3 3 3 2 2 2 2 2 2 2 2 2 2 2 2 3 2 2 2
15 15 14 13 12 11 11 10 10 11 10 10 10 9 9 8 8 7 7 7 7 6 5 4 4 4 4 3 3 3 3 3 3 3 4 4 3 3 4 4 4 4 4
17 16 15 15 14 13 13 12 12 12 11 11 11 11 10 10 9 9 8 7 8 7 7 6 5 5 5 5 5 4 4 4 5 5 5 5 6 6 6 6 6 6 6
18 18 17 17 16 15 15 14 14 13 13 13 13 13 12 11 11 10 10 9 9 9 9 8 7 7 7 7 6 6 6 6 6 6 7 7 7 7 7 7 7 8 8
20 19 19 19 18 17 17 16 15 15 15 15 14 15 14 13 12 12 12 11 11 10 10 9 9 9 8 8 8 8 8 8 8 8 8 8 9 9 9 9 9 10 10
21 21 21 21 20 20 19 18 17 17 16 16 16 16 16 15 15 14 14 13 12 12 11 11 10 10 10 10 10 10 10 10 10 10 10 11 11 11 11 12 12 12 12
22 22 23 23 22 22 21 21 20 20 19 18 18 18 18 18 17 16 16 15 14 14 13 12 12 12 12 11 12 12 12 12 12 12 13 13 13 13 13 14 14 14 14
24 25 24 24 24 24 23 22 22 22 21 21 20 20 20 20 19 19 18 17 17 16 16 15 14 14 14 14 14 14 14 14 14 14 15 15 15 15 15 15 16 16 16
26 26 26 26 26 25 25 25 24 24 23 23 22 21 21 21 21 21 20 19 19 18 18 17 17 16 16 16 16 16 16 16 16 16 16 17 17 17 17 17 17 17 17
27 27 28 27 27 27 27 26 25 25 25 25 24 24 23 23 23 22 22 21 20 20 20 19 19 19 18 18 18 18 18 18 18 18 18 18 18 19 19 19 19 19 19
29 29 29 29 28 29 28 28 27 26 26 26 26 25 25 25 24 24 24 23 22 22 22 22 22 21 21 20 20 20 20 20 20 20 21 21 21 21 21 21 21 21 21
30 31 31 31 30 30 30 29 29 28 28 28 27 27 26 26 26 25 25 25 25 24 24 24 24 24 24 23 23 23 22 22 22 22 22 23 23 23 23 24 24 24 24
31 32 32 32 32 31 31 31 31 30 30 30 29 29 28 28 27 27 27 27 27 26 26 26 26 26 26 26 25 25 25 24 24 25 24 24 25 25 25 25 26 26 26
31 33 33 34 34 34 33 33 33 32 32 31 30 30 29 29 28 28 29 29 29 28 27 28 28 28 28 28 27 27 26 26 26 27 27 27 27 27 28 28 28 28 28
32 33 33 34 34 35 34 34 34 33 32 32 31 31 31 30 29 30 31 30 30 30 29 29 29 29 30 30 29 29 28 28 28 28 29 29 29 30 30 30 30 29 29
32 32 33 33 34 34 34 34 34 34 33 33 33 32 32 32 32 32 32 32 32 31 31 31 31 31 31 31 30 30 30 30 30 30 30 30 31 31 31 32 32 32 32
31 31 32 33 33 34 34 35 35 35 35 34 34 34 33 33 34 33 33 33 33 32 32 32 32 32 33 32 32 32 32 32 31 31 31 32 32 33 33 33 33 33 33
31 31 31 32 33 34 35 36 37 37 36 36 35 35 34 34 34 34 33 34 34 33 33 33 33 33 34 34 33 33 33 33 33 33 32 33 33 33 33 34 34 35 35
32 32 32 32 33 34 35 36 37 38 38 37 36 36 36 36 36 35 35 35 35 35 35 35 34 34 35 35 35 35 35 34 35 35 35 34 34 35 36 36 36 36 37
32 33 34 33 33 33 34 35 36 37 38 38 38 37 37 37 36 35 36 36 36 36 36 36 36 36 36 36 37 37 37 37 37 37 37 37 37 37 37 38 38 38 39
33 33 34 34 34 33 33 34 36 36 37 38 38 38 38 37 37 37 36 37 36 36 37 37 38 37 37 37 38 38 38 38 38 38 39 39 39 39 39 39 39 39 40
33 33 33 34 34 34 34 35 36 37 37 37 38 38 38 38 39 39 38 37 37 37 36 37 38 38 38 38 39 39 39 39 40 40 40 41 41 41 41 40 40 40 40
33 33 34 34 35 34 35 35 37 38 38 38 38 38 38 38 39 40 39 39 39 39 38 38 38 38 39 39 40 40 40 41 41 41 42 42 42 42 42 42 42 41 41
33 34 34 35 35 35 36 36 37 38 38 38 38 38 39 39 40 39 40 40 39 39 40 40 39 39 39 40 40 41 42 42 41 42 43 43 43 43 43 43 43 43 43
33 33 34 35 36 36 36 37 37 39 40 40 40 40 40 40 41 41 40 39 39 39 39 39 39 39 40 40 41 42 42 42 43 43 43 42 42 43 44 44 44 44 44
33 33 33 34 35 35 36 37 37 39 40 41 42 42 41 41 42 42 41 40 40 41 40 41 41 41 42 42 42 43 43 44 44 44 43 43 43 43 44 46 47 46 45
Wind_Direction
236 235 234 233 232 228 225 224 221 216 215 214 210 208 210 210 209 207 206 204 200 200 201 207 205 210 214 217 214 206 206 204 218 224 231 237 237 229 222 222 229 243 253
237 236 234 233 234 233 229 226 224 220 218 218 217 215 215 217 218 217 213 213 212 214 220 227 220 221 225 231 235 237 242 242 242 238 236 240 242 242 242 244 250 258 265
237 236 234 235 235 234 232 230 228 226 224 222 221 221 221 224 225 226 222 223 223 223 223 226 226 231 235 239 246 249 253 255 253 250 246 243 245 248 251 252 254 263 269
238 236 236 236 237 236 236 235 233 230 230 228 227 227 227 227 229 230 231 231 230 230 233 235 234 238 242 245 248 252 256 258 259 256 253 248 246 250 254 257 259 264 268
239 237 237 237 238 238 238 237 236 234 233 234 233 232 232 232 234 235 237 239 239 237 238 240 241 243 244 247 250 253 258 260 261 259 257 256 254 253 255 258 261 264 267
241 238 237 238 239 240 240 239 238 237 237 237 238 237 236 237 238 238 239 241 243 242 241 242 244 245 247 249 252 255 259 261 263 261 260 260 259 258 258 260 263 266 267
241 240 239 239 240 241 242 242 241 240 241 241 240 240 239 239 241 241 241 242 244 245 246 246 247 249 250 252 254 257 261 263 263 262 261 260 260 259 260 261 263 265 267
241 242 242 241 241 241 241 242 242 242 243 243 243 243 242 242 243 244 245 246 247 246 248 249 250 251 253 254 256 259 262 264 265 265 264 262 261 260 260 261 263 265 265
244 244 243 243 242 242 242 242 243 244 244 244 244 244 244 243 244 245 247 248 248 249 250 251 252 251 253 256 258 260 262 264 265 265 265 263 261 261 261 263 265 267 267
246 245 244 242 241 242 242 242 243 244 244 244 245 246 247 246 245 246 247 248 250 252 252 253 255 255 257 258 260 262 263 264 265 265 265 265 264 262 262 264 266 267 268
247 246 245 242 242 241 241 242 243 244 245 244 245 246 248 248 246 247 248 248 250 253 254 255 256 258 258 260 261 263 264 265 265 266 265 266 265 265 265 266 266 267 268
247 246 245 244 242 242 242 243 244 244 245 245 245 246 248 249 247 247 248 250 251 253 255 256 256 257 259 260 261 262 263 266 267 267 266 266 266 266 267 267 268 268 267
247 245 244 243 243 243 244 245 245 245 244 245 246 246 248 249 247 249 250 251 252 253 255 256 256 257 259 261 262 263 264 265 267 267 266 267 267 266 266 267 268 268 267
248 246 244 244 244 244 244 244 243 243 244 244 245 246 247 249 250 250 251 252 253 253 255 256 257 257 259 260 261 263 264 265 266 267 267 268 268 268 268 267 267 266 266
250 247 245 244 243 244 244 243 242 243 244 243 244 244 245 248 250 251 251 252 253 254 256 257 258 258 259 260 261 263 264 265 265 266 267 268 268 268 268 268 267 266 266
250 248 246 245 243 243 243 243 242 242 243 243 244 245 246 248 251 253 251 252 254 256 256 257 257 258 259 260 261 262 264 265 265 266 267 268 269 269 269 269 268 268 267
248 247 246 246 245 244 244 244 243 242 243 244 244 246 247 249 252 253 252 252 253 254 256 257 257 258 259 260 262 263 264 265 266 268 269 269 269 270 270 270 269 269 268
248 248 247 248 248 247 247 246 244 243 243 243 245 246 248 249 252 253 254 255 256 257 257 258 258 259 260 261 263 263 264 265 266 267 269 270 270 269 269 269 269 269 269
249 249 248 249 250 250 249 247 244 244 244 244 245 247 249 251 252 254 255 256 257 257 257 258 259 261 262 263 263 264 265 266 267 268 268 270 269 270 270 269 270 270 270
249 248 248 250 251 251 250 247 245 244 245 245 246 248 250 252 252 254 255 256 258 258 259 261 261 262 263 263 264 265 266 267 268 268 268 269 270 271 271 272 272 271 271
249 249 248 249 249 249 249 247 245 244 245 246 247 249 251 251 253 254 255 257 259 260 260 262 262 262 263 265 265 265 266 267 268 269 269 269 270 271 272 272 273 273 273
250 248 248 249 248 247 248 248 246 245 245 246 248 250 251 252 253 254 255 257 258 259 260 262 262 262 264 264 265 266 266 268 269 270 270 270 270 271 272 272 273 275 275
250 250 249 250 248 249 249 248 247 246 246 247 248 250 251 251 253 253 256 257 258 260 261 263 263 264 265 264 264 266 267 269 269 270 271 272 272 271 272 272 274 275 275
250 251 252 252 250 251 251 251 249 247 247 248 248 249 249 251 254 255 257 257 258 260 261 262 264 265 265 266 266 267 268 268 269 270 271 271 272 271 272 273 274 275 274
251 252 251 252 252 253 254 253 251 248 249 249 249 251 252 252 253 255 257 258 259 260 262 263 265 266 267 267 267 268 269 270 270 271 271 271 271 271 272 272 273 274 273
251 252 252 252 253 254 255 255 253 252 251 250 251 252 253 254 255 256 258 259 260 260 263 265 266 266 268 268 269 269 270 271 271 271 271 271 271 272 272 273 273 273 273
Height
5848 5848 5849 5850 5850 5851 5851 5852 5853 5853 5854 5854 5855 5855 5856 5856 5856 5856 5857 5857 5857 5857 5857 5857 5857 5857 5857 5858 5858 5858 5858 5857 5857 5857 5857 5857 5857 5857 5857 5858 5858 5858 5857
5845 5846 5847 5847 5848 5849 5849 5850 5851 5852 5852 5853 5853 5854 5855 5855 5855 5856 5856 5856 5856 5856 5856 5857 5857 5857 5857 5857 5857 5857 5857 5857 5857 5857 5857 5857 5857 5857 5857 5857 5857 5857 5857
5842 5843 5844 5845 5846 5846 5847 5848 5849 5850 5850 5851 5852 5852 5853 5854 5854 5854 5854 5855 5855 5855 5855 5856 5856 5856 5856 5856 5856 5856 5856 5856 5856 5856 5856 5856 5856 5856 5856 5856 5856 5856 5856
5838 5839 5841 5842 5843 5844 5845 5846 5847 5847 5848 5849 5849 5850 5851 5852 5852 5853 5853 5853 5853 5854 5854 5854 5854 5855 5855 5855 5855 5855 5855 5855 5855 5855 5855 5854 5854 5855 5855 5855 5855 5855 5854
5835 5836 5837 5838 5840 5841 5842 5843 5844 5844 5845 5846 5847 5848 5849 5849 5850 5851 5851 5851 5852 5852 5852 5852 5853 5853 5853 5853 5854 5853 5853 5853 5853 5853 5853 5853 5853 5853 5853 5853 5853 5853 5853
5831 5832 5833 5834 5836 5837 5838 5840 5840 5841 5842 5843 5844 5845 5846 5847 5847 5848 5849 5849 5850 5850 5850 5851 5851 5851 5851 5851 5851 5851 5851 5851 5851 5851 5851 5851 5851 5851 5851 5851 5851 5851 5851
5826 5827 5828 5830 5831 5833 5834 5836 5837 5838 5839 5839 5840 5841 5842 5843 5844 5845 5846 5846 5847 5847 5848 5848 5849 5849 5849 5849 5849 5849 5849 5849 5849 5849 5849 5849 5849 5849 5849 5849 5848 5848 5848
5821 5822 5823 5825 5827 5828 5830 5831 5833 5834 5835 5836 5837 5837 5838 5840 5841 5842 5842 5843 5844 5844 5845 5845 5846 5846 5846 5846 5846 5846 5846 5846 5846 5846 5846 5846 5846 5845 5845 5845 5845 5845 5845
5816 5817 5818 5819 5821 5823 5824 5826 5828 5829 5830 5831 5832 5833 5834 5835 5837 5838 5839 5839 5840 5841 5841 5842 5842 5843 5843 5843 5843 5843 5843 5843 5843 5843 5843 5842 5842 5842 5842 5842 5842 5842 5842
5810 5811 5812 5814 5815 5817 5819 5821 5822 5824 5825 5826 5828 5829 5830 5831 5832 5833 5834 5835 5836 5837 5837 5838 5838 5839 5839 5839 5839 5840 5840 5839 5839 5839 5839 5839 5839 5838 5838 5838 5838 5838 5838
5803 5804 5806 5808 5809 5811 5813 5814 5816 5818 5819 5821 5822 5824 5825 5826 5827 5828 5830 5831 5832 5832 5833 5834 5834 5835 5835 5835 5835 5835 5835 5835 5835 5835 5835 5834 5834 5834 5834 5834 5834 5833 5833
5796 5797 5799 5801 5803 5804 5806 5808 5810 5811 5813 5814 5816 5818 5819 5821 5822 5823 5824 5825 5826 5827 5828 5829 5829 5830 5830 5830 5831 5831 5831 5830 5830 5830 5830 5830 5830 5829 5829 5829 5829 5828 5828
5788 5789 5791 5793 5795 5797 5799 5801 5803 5804 5806 5808 5810 5812 5814 5815 5816 5818 5819 5820 5821 5822 5822 5823 5824 5824 5825 5825 5825 5825 5825 5825 5825 5825 5825 5824 5824 5824 5823 5823 5823 5823 5822
5780 5781 5783 5785 5787 5790 5792 5793 5795 5797 5799 5801 5803 5805 5807 5809 5810 5812 5813 5814 5815 5816 5817 5818 5818 5819 5819 5819 5820 5820 5820 5819 5819 5819 5819 5819 5818 5818 5817 5817 5816 5816 5816
5772 5773 5775 5777 5779 5782 5784 5786 5787 5789 5791 5794 5796 5799 5801 5802 5804 5805 5807 5808 5809 5810 5810 5811 5812 5812 5813 5813 5813 5814 5814 5813 5813 5813 5813 5812 5812 5811 5810 5810 5810 5809 5809
5764 5765 5767 5769 5771 5773 5776 5778 5780 5782 5784 5787 5790 5792 5794 5795 5797 5799 5800 5801 5802 5803 5804 5804 5805 5806 5806 5806 5807 5807 5807 5807 5806 5806 5806 5805 5804 5804 5803 5803 5802 5802 5801
5756 5758 5759 5761 5763 5765 5767 5769 5772 5775 5777 5780 5782 5785 5786 5788 5790 5791 5793 5794 5795 5796 5797 5797 5798 5799 5799 5799 5799 5799 5800 5799 5799 5799 5798 5798 5797 5796 5796 5795 5794 5794 5793
5749 5750 5752 5754 5755 5757 5759 5761 5764 5766 5769 5772 5775 5777 5779 5781 5782 5784 5785 5787 5788 5789 5790 5790 5791 5791 5792 5792 5792 5792 5792 5792 5792 5791 5791 5790 5789 5789 5788 5787 5786 5786 5785
5742 5743 5745 5746 5747 5749 5750 5752 5755 5758 5761 5765 5768 5770 5772 5773 5775 5776 5778 5779 5780 5781 5782 5783 5783 5784 5784 5784 5785 5785 5784 5784 5784 5784 5783 5782 5781 5781 5780 5779 5778 5777 5776
5734 5736 5737 5738 5740 5741 5742 5744 5747 5750 5753 5757 5760 5762 5763 5765 5767 5768 5770 5771 5772 5773 5774 5775 5775 5776 5776 5776 5777 5777 5776 5776 5776 5775 5775 5774 5773 5772 5771 5770 5769 5768 5767
5726 5728 5729 5730 5732 5733 5735 5737 5739 5743 5746 5749 5751 5753 5755 5756 5758 5760 5762 5763 5764 5765 5766 5766 5767 5768 5768 5768 5768 5768 5768 5768 5767 5766 5765 5765 5764 5763 5762 5761 5760 5758 5757
5719 5720 5722 5723 5724 5726 5728 5730 5732 5735 5738 5741 5743 5745 5747 5748 5750 5751 5753 5755 5756 5757 5757 5758 5758 5759 5759 5759 5759 5759 5759 5759 5758 5757 5756 5755 5754 5753 5752 5751 5750 5749 5747
5711 5713 5714 5715 5717 5719 5721 5722 5724 5727 5730 5732 5735 5737 5738 5739 5741 5743 5744 5746 5747 5748 5749 5749 5750 5750 5750 5750 5750 5750 5749 5749 5749 5748 5747 5746 5744 5744 5743 5742 5741 5739 5737
5704 5705 5707 5708 5709 5711 5713 5715 5717 5719 5721 5723 5726 5728 5729 5731 5732 5734 5735 5736 5738 5739 5739 5740 5741 5741 5741 5741 5741 5740 5740 5739 5739 5738 5737 5735 5734 5733 5732 5731 5730 5729 5727
5696 5697 5699 5700 5702 5703 5705 5706 5708 5710 5712 5714 5717 5719 5720 5722 5724 5725 5726 5727 5728 5729 5730 5731 5731 5731 5731 5731 5731 5730 5729 5729 5728 5727 5727 5725 5724 5722 5721 5721 5720 5719 5717
5688 5689 5691 5692 5694 5695 5697 5698 5700 5702 5704 5705 5708 5710 5711 5713 5714 5715 5717 5718 5719 5720 5720 5721 5721 5721 5721 5721 5720 5720 5719 5718 5717 5716 5716 5715 5713 5712 5711 5709 5708 5707 5706